Location: Camden Lake
(44.4269°N, 76.8469°W)
Time: 04:51:37
(UTC-04:00)

Daily predictions for brighter satellites

Satellite Brightness Start Highest point End
(mag) Time Altitude Azimuth Time Altitude Azimuth Time Altitude Azimuth
SeaSat 1 3.7 00:09:02 35° NNE 00:09:02 35° NNE 00:12:41 10° NNW
Lacrosse 5 3.2 00:06:49 10° NW 00:09:43 34° NW 00:09:43 34° NW
Cosmos 1459 Rocket 4.2 00:15:57 62° NNE 00:15:57 62° NNE 00:21:02 10° N
Cosmos 1943 Rocket 3.5 00:32:46 10° NW 00:36:08 32° WNW 00:36:08 32° WNW
BREEZE M DEB (TANK) 4.3 00:31:30 10° WNW 00:36:54 35° NW 00:36:54 35° NW
H-2A R/B 4.0 00:45:23 29° NNW 00:45:23 29° NNW 00:47:36 10° NNW
Cosmos 1656 Rocket 4.5 00:40:28 10° NNW 00:44:31 48° NNW 00:44:31 48° NNW
Cosmos 2061 Rocket 4.3 00:50:16 65° NW 00:50:16 65° NW 00:55:58 10° N
Cosmos 2100 Rocket 4.5 00:50:49 54° WNW 00:50:49 54° WNW 00:56:34 10° N
Cosmos 1802 Rocket 4.3 00:51:22 60° NNW 00:51:22 60° NNW 00:56:37 10° N
USA 267 4.3 00:48:42 10° NE 00:54:45 42° NNW 01:00:48 10° W
Cosmos 2233 Rocket 4.5 01:08:31 53° NE 01:08:31 53° NE 01:13:23 10° NNE
Cosmos 2369 Rocket 4.4 01:05:25 10° WNW 01:07:06 15° WNW 01:07:06 15° WNW
ADEOS Rocket 3.3 01:15:38 10° NNE 01:21:59 73° NNW 01:21:59 73° NNW
Mayak 1.2 01:32:01 10° NNW 01:33:35 18° NNW 01:33:35 18° NNW
Cosmos 1833 Rocket 4.2 01:59:55 28° E 01:59:55 28° E 02:03:44 10° NE
Cosmos 2369 4.4 01:54:04 10° NNW 01:59:23 50° NE 01:59:23 50° NE
Lacrosse 4 Rocket 3.4 02:01:46 10° N 02:05:06 28° NE 02:05:06 28° NE
CZ-4B R/B 4.5 02:13:55 15° N 02:13:55 15° N 02:14:34 10° N
Gbstr 26 Del rocket 4.2 02:16:39 79° WSW 02:17:13 90° NW 02:24:27 10° ENE
Cosmos 1607 4.4 02:20:37 55° ESE 02:20:37 55° ESE 02:26:31 10° NE
Cosmos 2034 Rocket 3.9 02:25:57 80° ENE 02:25:57 80° ENE 02:32:05 10° N
ARIANE 5 R/B 4.4 02:28:35 10° NE 02:32:25 20° E 02:33:21 19° ESE
Cosmos 1867 3.9 02:28:02 10° NNW 02:33:14 65° NNE 02:33:14 65° NNE
Lacrosse 5 rocket 3.4 02:35:45 25° ENE 02:35:45 25° ENE 02:37:36 10° ENE
Cosmos 1092 Rocket 4.4 02:30:13 10° N 02:36:22 57° ENE 02:37:32 49° ESE
Cosmos 371 Rocket 4.0 02:38:31 50° NE 02:38:31 50° NE 02:42:17 10° NNE
Meteor 1-23 Rocket 4.4 02:38:30 65° E 02:38:30 65° E 02:44:05 10° NNE
MOS 1 Rocket 4.3 02:33:59 10° N 02:37:14 41° NNW 02:37:14 41° NNW
Meteor 2-4 Rocket 3.8 02:39:37 64° NNW 02:39:37 64° NNW 02:44:14 10° N
Exosat Rocket 4.2 02:34:30 10° NNW 02:40:24 78° ENE 02:42:45 46° SE
Cosmos 967 Rocket 4.4 02:40:22 10° NW 02:46:34 77° W 02:46:34 77° W
CZ-2D R/B 2.9 02:41:52 10° NNE 02:46:59 42° E 02:47:19 41° ESE
COSMOS 2406 4.4 02:50:43 29° WNW 02:51:05 30° NW 02:56:04 10° N
Cosmos 2278 4.0 02:46:15 10° NNW 02:50:51 58° NW 02:50:51 58° NW
SL-16 R/B 2.7 02:51:48 51° SE 02:53:24 72° ENE 02:59:39 10° N
Cosmos 1464 Rocket 4.4 02:53:39 48° WNW 02:53:39 48° WNW 02:59:37 10° N
Cosmos 1980 Rocket 2.9 02:49:48 10° NNW 02:55:17 52° ENE 02:58:12 27° ESE
Cosmos 1697 Rocket 2.6 02:52:06 10° NNW 02:57:47 89° NNE 02:57:47 89° NNE
IRS-1D 4.3 02:54:00 10° NNE 02:58:57 44° E 02:59:31 42° ESE
IRS-1C 4.4 02:57:58 10° NNE 03:03:16 58° E 03:03:43 56° SE
Cosmos 2082 Rocket 2.0 03:06:40 85° SW 03:06:50 89° WNW 03:12:32 10° NNE
SL-16 R/B 4.3 03:03:10 10° N 03:07:53 26° NE 03:12:33 10° ESE
H-2A R/B 3.0 03:07:26 10° NNE 03:10:57 60° N 03:10:57 60° N
Cosmos 304 Rocket 4.3 03:11:51 50° ESE 03:11:57 50° ESE 03:16:38 10° NNE
Nadezhda 4 Rocket 4.1 03:08:07 10° NNW 03:13:59 52° W 03:13:59 52° W
ATLAS 3B R/B 4.2 03:16:15 19° SSE 03:19:38 27° ESE 03:25:14 10° ENE
MOZ.5/SAFIR/RUBIN 5/SL-8 3.9 03:21:26 63° SE 03:22:03 72° ENE 03:26:48 10° N
Cosmos 1544 4.2 03:18:38 10° N 03:21:44 43° NE 03:21:44 43° NE
Resurs 1-4 Rocket 1.9 03:17:40 10° NNE 03:22:58 87° ESE 03:23:33 72° S
Cosmos 2322 Rocket 4.0 03:18:36 10° N 03:23:35 31° NE 03:28:31 10° ESE
Cosmos 1606 Rocket 4.2 03:20:52 10° N 03:25:06 51° ENE 03:25:51 45° ESE
Cosmos 1634 Rocket 3.9 03:24:53 57° SSW 03:26:18 86° W 03:32:36 10° N
Cosmos 1340 Rocket 4.1 03:28:57 31° NNW 03:28:57 31° NNW 03:31:28 10° N
ERS-1 4.4 03:26:59 10° NNE 03:31:58 76° ESE 03:32:47 61° SSE
IRS-P3 4.2 03:27:53 10° N 03:33:08 59° WNW 03:33:41 56° W
NPP 3.8 03:28:46 10° N 03:34:01 54° WNW 03:34:34 51° W
SJ 16-02 4.4 03:33:53 10° NNE 03:36:27 15° NE 03:39:00 10° E
SL-08 R/B 3.9 03:37:49 43° WNW 03:37:49 43° WNW 03:41:45 10° NNW
Cosmos 1892 Rocket 4.3 03:38:18 38° SE 03:39:27 48° E 03:43:43 10° NNE
Cosmos 2279 Rocket 4.1 03:36:56 36° S 03:39:38 74° E 03:45:55 10° NNE
CBERS-1 4.3 03:35:07 10° N 03:40:03 50° WNW 03:40:29 49° W
Cosmos 1025 Rocket 3.4 03:42:56 50° NW 03:42:56 50° NW 03:46:43 10° N
Cosmos 1833 Rocket 3.2 03:41:36 40° W 03:42:38 45° WNW 03:48:03 10° NNE
Lacrosse 4 Rocket 3.6 03:40:23 10° NW 03:41:22 16° NW 03:41:22 16° NW
COSMOS 2487 3.1 03:45:12 51° N 03:45:12 51° N 03:47:59 10° NNE
Cosmos 2026 Rocket 4.0 03:40:50 10° NNW 03:47:10 68° W 03:49:31 40° SSW
Cosmos 2208 Rocket 3.9 03:46:29 56° SW 03:47:37 81° WNW 03:52:54 10° NNE
Cosmos 1898 Rocket 3.3 03:44:33 10° NNW 03:49:47 83° WSW 03:52:29 30° SSE
Cosmos 44 3.8 03:50:42 10° NNW 03:55:53 66° NE 04:01:14 10° SE
Cosmos 1805 3.9 03:53:15 10° N 03:57:05 52° ENE 03:59:11 24° SSE
Cosmos 1937 Rocket 3.4 03:54:53 10° NNW 04:00:07 87° ENE 04:05:17 10° SSE
Iridium 4 Rocket 4.0 04:00:48 32° WNW 04:00:48 32° WNW 04:04:31 10° NNW
BREEZE-M R/B 3.2 04:00:43 44° SSE 04:00:54 44° SE 04:05:45 10° ENE
Cosmos 1570 Rocket 4.2 04:00:10 44° WSW 04:01:28 55° WNW 04:06:42 10° NNE
Cosmos 1766 3.1 04:00:22 10° N 04:04:15 83° W 04:04:57 59° S
Cosmos 858 Rocket 4.3 03:59:33 10° NNW 04:04:46 76° WSW 04:08:44 17° SSE
Cosmos 2360 4.4 04:00:05 10° NW 04:05:30 47° WSW 04:07:09 37° SSW
Cosmos 724 4.2 04:05:14 36° SSW 04:07:42 82° ESE 04:13:31 10° NE
Timation 2 Rocket 4.1 04:07:41 27° S 04:11:04 67° ESE 04:17:00 10° NNE
Cosmos 1356 Rocket 3.6 04:10:57 45° W 04:11:14 46° WNW 04:15:09 10° N
ARIANE 5 R/B 2.7 04:06:45 10° N 04:11:52 56° WNW 04:13:42 37° SW
Spot 4 Rocket 4.3 04:07:38 10° N 04:12:39 52° WNW 04:14:23 36° WSW
Lacrosse 5 rocket 2.7 04:11:25 25° WNW 04:12:54 31° NNW 04:16:33 10° NE
Cosmos 468 Rocket 4.1 04:12:09 38° SW 04:14:04 63° WNW 04:19:23 10° NNE
Cosmos 990 Rocket 3.8 04:10:11 10° NNW 04:15:20 70° WSW 04:20:27 10° S
USA 238 DEB 3.8 04:17:41 25° SSW 04:21:57 72° ESE 04:28:53 10° NE
USA 238 3.8 04:17:46 25° SSW 04:22:03 71° ESE 04:29:00 10° NE
Cosmos 2266 Rocket 4.0 04:16:22 10° N 04:22:29 80° E 04:28:38 10° S
Cosmos 1814 Rocket 3.9 04:20:49 30° SSW 04:23:26 85° WNW 04:28:39 10° NNE
Cosmos 1655 Rocket 4.2 04:17:27 10° NNW 04:23:37 54° W 04:27:55 20° SSW
Cosmos 1758 3.8 04:19:49 10° N 04:23:45 58° E 04:27:40 10° SSE
Cosmos 44 Rocket 3.6 04:19:32 10° NNW 04:24:42 77° NE 04:29:53 10° SE
Helios 1A Rocket 3.3 04:22:07 10° N 04:26:08 48° WNW 04:27:22 36° WSW
CZ-2D R/B 3.2 04:22:17 10° N 04:26:51 29° WNW 04:28:39 23° W
CZ-2D R/B 3.5 04:23:19 10° N 04:27:21 60° WNW 04:28:56 34° SW
Cosmos 2150 Rocket 4.0 04:23:22 10° NNW 04:28:51 74° WSW 04:34:16 10° SSE
Cosmos 1733 3.7 04:29:53 10° N 04:33:44 62° E 04:37:33 10° SSE
Cosmos 1726 Rocket 4.2 04:30:42 10° NNW 04:34:35 33° W 04:35:31 30° WSW
Cosmos 2298 Rocket 4.1 04:30:48 10° NNW 04:36:01 56° WSW 04:41:11 10° S
Cosmos 2360 Rocket 3.3 04:31:20 10° NNW 04:36:47 48° ENE 04:42:12 10° SE
Meteor 1-21 4.2 04:33:26 20° SSW 04:37:21 70° WNW 04:42:58 10° N
SL-16 R/B 3.8 04:36:53 19° W 04:37:35 20° W 04:42:00 10° NW
Cosmos 1980 Rocket 3.2 04:34:28 10° NW 04:38:56 25° WSW 04:39:51 24° WSW
PSLV R/B 4.5 04:37:56 10° NNE 04:42:01 46° E 04:46:03 10° S
ADEOS II 2.1 04:42:31 10° N 04:47:47 74° WNW 04:52:21 14° SSW
Meteor 2-11 Rocket 4.4 04:41:38 10° S 04:47:48 83° W 04:53:59 10° N
ADEOS 4.0 04:44:58 10° N 04:49:55 44° WNW 04:53:17 19° SW
Cosmos 1812 Rocket 3.8 04:47:13 10° N 04:51:42 75° E 04:56:08 10° SSE
Cosmos 2082 Rocket 4.0 04:48:31 11° W 04:51:46 18° NW 04:55:30 10° N
Cosmos 841 Rocket 3.5 04:48:23 19° SW 04:52:03 66° WNW 04:57:16 10° NNE
UNKNOWN OBJECT B 3.8 04:48:54 10° N 04:52:18 29° WNW 04:53:49 22° WSW
SL-16 R/B 2.2 04:46:48 10° NNW 04:52:21 57° WSW 04:57:53 10° S
CZ-4B R/B 4.0 04:50:01 10° NNE 04:54:06 45° E 04:57:57 10° S
Cosmos 2058 Rocket 4.0 04:52:02 10° NNW 04:55:51 29° W 04:58:12 18° SW
Cosmos 1602 Rocket 3.4 04:53:48 11° SSW 04:57:57 77° W 05:02:17 10° N
NOSS 3-2 (C) 4.0 04:53:24 10° SSW 04:59:08 55° ESE 05:05:29 10° NE
Cosmos 1470 2.7 04:55:27 10° N 04:59:28 86° W 05:03:26 10° S
Cosmos 2228 4.2 04:56:21 10° NW 04:59:45 24° W 05:01:28 18° WSW
Resurs 1-4 Rocket 4.0 04:59:16 10° NNW 05:02:04 15° WNW 05:04:38 11° W
Cosmos 2322 Rocket 2.5 05:02:27 10° NW 05:07:47 45° WSW 05:13:05 10° S
Cosmos 540 Rocket 3.4 05:02:52 10° SSW 05:07:59 81° WNW 05:13:11 10° NNE
ATLAS 3B R/B 2.8 05:03:31 14° SW 05:09:48 71° NW 05:16:43 10° NE
Cosmos 1626 Rocket 3.8 05:06:34 12° SSW 05:10:27 49° WNW 05:14:41 10° N
USA 161 3.2 05:10:04 10° SE 05:12:55 38° ENE 05:15:42 10° N
SJ 16-02 1.3 05:11:07 10° NNW 05:15:30 64° WSW 05:19:52 10° S
NOSS 3-2 (A) 3.5 05:10:13 11° SW 05:15:56 87° NW 05:22:35 10° NE
Cosmos 1833 4.4 05:11:46 10° SSW 05:17:33 80° ESE 05:23:22 10° NNE
Cosmos 292 Rocket 4.2 05:13:38 12° SW 05:17:52 47° WNW 05:22:31 10° N
Cosmos 1707 2.7 05:14:27 10° SSW 05:18:19 79° W 05:22:14 10° N
Cosmos 1378 3.3 05:15:02 10° SSW 05:18:42 55° W 05:22:25 10° N
MOS 1-B 4.4 05:13:35 10° NNE 05:19:26 89° ESE 05:25:15 10° SSW
ATLAS CENTAUR R/B 1.8 05:17:17 10° NNW 05:21:41 78° NE 05:26:21 10° SE
USA 215 3.3 05:19:20 10° NE 05:25:54 88° NW 05:32:28 10° SW
CENTAUR R/B 3.7 05:24:58 10° S 05:30:28 41° ESE 05:36:42 10° NE
Meteor 1-31 Rocket 3.4 05:28:58 10° NNE 05:32:49 59° E 05:36:37 10° S
CZ-4B R/B 3.9 05:27:20 10° NNE 05:32:51 60° ESE 05:38:14 10° S
Cosmos 1953 3.3 05:30:19 10° NNW 05:33:50 28° W 05:37:19 10° SSW
PSLV R/B 3.8 05:30:50 10° N 05:34:41 65° WNW 05:38:25 10° SSW
Cosmos 1553 Rocket 4.2 05:34:04 10° S 05:40:29 88° E 05:46:56 10° N
Cosmos 1400 Rocket 3.8 05:37:14 10° S 05:41:02 51° E 05:44:55 10° NNE
IDEFIX/ARIANE 42P 4.0 05:39:02 10° NNE 05:43:59 42° E 05:48:56 10° SSE
Cosmos 1125 Rocket 3.8 05:39:31 10° NNW 05:44:34 45° WSW 05:49:34 10° S
